Yankton, SD

9:13 PM CST on December 08, 2019 (GMT -0600)
Gurney Municipal

Weather History for KYKN - October, 2019

Change the Weather History Date:

Monday, October 7, 2019

  Actual Average Record
Temperature  
Mean Temperature 57 °F -  
Max Temperature 75 °F 63 °F 87 °F (1958)
Min Temperature 39 °F 38 °F 19 °F (1952)
Degree Days  
Heating Degree Days 8    
Growing Degree Days 7 (Base 50)    
Moisture  
Dew Point 39 °F    
Average Humidity 56    
Maximum Humidity 96    
Minimum Humidity 27    
Precipitation  
Precipitation 0.00 in - - ()
Sea Level Pressure  
Sea Level Pressure 30.17 in    
Wind  
Wind Speed 8 mph (South)    
Max Wind Speed 17 mph    
Max Gust Speed 22 mph    
Visibility 10 miles    
Events      
Averages and records for this station are not official NWS values.
T = Trace of Precipitation, MM = Missing Value Source: NWS Daily Summary

Daily Weather History Graph

Daily Weather History Graph

Search for Another Location

Airport or City:

Astronomy

Oct. 07, 2019 Rise Set
Actual Time 7:33 AM CDT 7:00 PM CDT
Civil Twilight 7:05 AM CDT 7:28 PM CDT
Nautical Twilight 6:32 AM CDT 8:01 PM CDT
Astronomical Twilight 5:59 AM CDT 8:34 PM CDT
Moon 4:33 PM CDT (10/7) 1:16 AM CDT (10/7)
Length of Visible Light 12h 23m
Length of Day
11h 27m
Waxing Gibbous, 69% of the Moon is Illuminated
Oct 7
Waxing Gibbous
Oct 13
Full
Oct 21
Last Quarter
Oct 27
New
Nov 4
First Quarter

Hourly Weather History & Observations

Time (CDT) Temp. Windchill Dew Point Humidity Pressure Visibility Wind Dir Wind Speed Gust Speed Precip Events Conditions
12:56 AM 50.0 °F - 39.0 °F 66% 30.25 in 10.0 mi WSW 10.4 mph - N/A   Clear
1:56 AM 48.0 °F - 37.0 °F 66% 30.25 in 10.0 mi SW 9.2 mph - N/A   Clear
2:56 AM 45.0 °F 43.5 °F 37.0 °F 74% 30.27 in 10.0 mi SSW 3.5 mph - N/A   Clear
3:56 AM 43.0 °F 41.3 °F 37.0 °F 80% 30.27 in 10.0 mi SW 3.5 mph - N/A   Clear
4:56 AM 39.9 °F - 36.0 °F 86% 30.27 in 10.0 mi Calm Calm - N/A   Clear
5:56 AM 39.0 °F - 36.0 °F 89% 30.28 in 10.0 mi Calm Calm - N/A   Clear
6:56 AM 39.0 °F 35.7 °F 36.0 °F 89% 30.29 in 10.0 mi NE 4.6 mph - N/A   Clear
7:56 AM 39.0 °F 36.8 °F 37.9 °F 96% 30.29 in 10.0 mi ENE 3.5 mph - N/A   Clear
8:56 AM 44.1 °F - 41.0 °F 89% 30.29 in 10.0 mi Calm Calm - N/A   Clear
9:56 AM 48.9 °F - 43.0 °F 80% 30.29 in 10.0 mi SE 4.6 mph - N/A   Clear
10:56 AM 57.0 °F - 43.0 °F 59% 30.27 in 10.0 mi ESE 3.5 mph - N/A   Clear
11:56 AM 64.0 °F - 43.0 °F 46% 30.23 in 10.0 mi ESE 8.1 mph - N/A   Clear
12:56 PM 69.1 °F - 36.0 °F 30% 30.19 in 10.0 mi South 13.8 mph - N/A   Clear
1:56 PM 71.1 °F - 35.1 °F 27% 30.14 in 10.0 mi SSE 12.7 mph 20.7 mph N/A   Clear
2:56 PM 73.0 °F - 39.0 °F 29% 30.10 in 10.0 mi South 16.1 mph - N/A   Clear
3:56 PM 75.0 °F - 39.9 °F 28% 30.08 in 10.0 mi South 13.8 mph 18.4 mph N/A   Clear
4:56 PM 75.0 °F - 39.0 °F 27% 30.06 in 10.0 mi South 13.8 mph 21.9 mph N/A   Clear
5:56 PM 73.0 °F - 41.0 °F 31% 30.05 in 10.0 mi South 10.4 mph - N/A   Clear
6:56 PM 68.0 °F - 42.1 °F 39% 30.04 in 10.0 mi South 9.2 mph - N/A   Clear
7:56 PM 64.0 °F - 41.0 °F 43% 30.04 in 10.0 mi South 10.4 mph - N/A   Clear
8:56 PM 63.0 °F - 39.9 °F 43% 30.04 in 10.0 mi South 11.5 mph - N/A   Clear
9:56 PM 62.1 °F - 39.0 °F 43% 30.03 in 10.0 mi South 13.8 mph - N/A   Clear
10:56 PM 62.1 °F - 39.9 °F 44% 30.02 in 10.0 mi South 16.1 mph 21.9 mph N/A   Clear
11:56 PM 61.0 °F - 39.0 °F 44% 30.00 in 10.0 mi South 17.3 mph - N/A   Clear